• Join FlightAware (Why Join?)
  • Login
  • US Flag 
06:26PM EDT


 

Airport Tracker/Info


-or-


 

Live Flight TrackerFlight Track Log ✈ SWA3313 ✈ 30-Apr-2013 ✈ KBWI - KCLT

Flight Track Log - Related Links

Times and Time Zones

All times are in EDT time to prevent confusion due to time zone crossing. See the SWA3313 flight status page for this flight to view local times or setup timezone preferences in your user account.

Time Position Orientation Groundspeed Altitude Reporting Facility
EDT Latitude Longitude Course Direction KTS MPH feet Rate Location/Type
08:01PM 39.1333 -76.6833 218° Southwest 198 228 2,400  Level Potomac TRACON
08:02PM 39.1667 -76.7333 311° West 227 261 5,200 2,700 Climbing Potomac TRACON
08:03PM 39.1833 -76.8333 282° West 278 320 7,900 2,940 Climbing Potomac TRACON
08:04PM 39.2000 -76.9333 282° West 297 342 11,100 3,300 Climbing Potomac TRACON
08:05PM 39.2000 -77.0500 270° West 345 397 14,500 3,300 Climbing Potomac TRACON
08:06PM 39.1833 -77.1667 260° West 371 427 17,700 3,000 Climbing Potomac TRACON
08:07PM 39.0215 -77.2952 218° Southwest  Level FlightAware Approximate
08:07PM 39.1000 -77.2500 218° Southwest 394 453 20,600  Level Potomac TRACON
08:08PM 39.0000 -77.3333 213° Southwest 425 489 23,000 1,140 Climbing Potomac TRACON
08:10PM 38.8203 -77.4222 201° Southwest 443 510 23,800 1,140 Climbing Washington Center
08:11PM 38.7269 -77.5183 219° Southwest 430 495 26,100 1,560 Climbing Washington Center
08:12PM 38.6356 -77.6303 224° Southwest 436 502 27,000 600 Climbing Washington Center
08:13PM 38.5439 -77.7392 223° Southwest 448 516 27,300 480 Climbing Washington Center
08:14PM 38.4522 -77.8506 224° Southwest 454 522 28,000 540 Climbing Washington Center
08:15PM 38.3606 -77.9617 224° Southwest 459 528 28,400 1,080 Climbing Washington Center
08:16PM 38.2664 -78.0722 223° Southwest 459 528 30,200 1,560 Climbing Washington Center
08:17PM 38.1703 -78.1853 223° Southwest 464 534 31,600 840 Climbing Washington Center
08:18PM 38.0717 -78.3006 223° Southwest 469 540 32,000 180 Climbing Washington Center
08:19PM 37.9775 -78.4131 223° Southwest 475 547 32,000  Level Washington Center
08:20PM 37.8789 -78.5253 222° Southwest 475 547 32,000  Level Washington Center
08:21PM 37.7781 -78.6394 222° Southwest 475 547 32,000  Level Washington Center
08:22PM 37.6858 -78.7303 218° Southwest 475 547 32,000  Level Washington Center
08:23PM 37.5811 -78.8256 216° Southwest 475 547 32,000  Level Washington Center
08:24PM 37.4783 -78.9233 217° Southwest 475 547 32,000  Level Washington Center
08:25PM 37.3733 -79.0206 216° Southwest 470 541 32,000  Level Washington Center
08:26PM 37.2725 -79.1178 218° Southwest 470 541 32,000  Level Washington Center
08:27PM 37.1694 -79.2122 216° Southwest 464 534 32,000 -360 Level Washington Center
08:28PM 37.0558 -79.3189 217° Southwest 464 534 31,400 -840 Descending Washington Center
08:29PM 36.9525 -79.4178 217° Southwest 469 540 30,400 -1,020 Descending Washington Center
08:30PM 36.8492 -79.5139 217° Southwest 469 540 29,400 -1,020 Descending Washington Center
08:31PM 36.7500 -79.6072 217° Southwest 463 533 28,400 -1,020 Descending Washington Center
08:32PM 36.6575 -79.6906 216° Southwest 463 533 27,400 -1,020 Descending Washington Center
08:33PM 36.5606 -79.7811 217° Southwest 458 527 26,400 -1,080 Descending Washington Center
08:34PM 36.4972 -79.8344 214° Southwest 454 522 25,800 -1,740 Descending Atlanta Center
08:35PM 36.3961 -79.9275 217° Southwest 454 522 23,900 -1,920 Descending Atlanta Center
08:36PM 36.3031 -80.0144 217° Southwest 448 516 22,000 -1,020 Descending Atlanta Center
08:37PM 36.2219 -80.0856 215° Southwest 427 491 21,900 -840 Descending Atlanta Center
08:38PM 36.1306 -80.1619 214° Southwest 416 479 20,400  Descending Atlanta Center
08:39PM 36.0453 -80.2328 214° Southwest 395 455 22,000 -2,160 Climbing Atlanta Center
08:40PM 35.9517 -80.3167 216° Southwest 345 397 15,900 -4,020 Descending Atlanta Center
08:41PM 35.8947 -80.3656 215° Southwest 339 390 14,400 -1,680 Descending Atlanta Center
08:41PM 35.8256 -80.4250 215° Southwest 322 371 13,000 -1,260 Descending Atlanta Center
08:43PM 35.7442 -80.4900 213° Southwest 325 374 11,800 -960 Descending Atlanta Center
08:44PM 35.6769 -80.5467 214° Southwest 312 359 11,000 -480 Descending Atlanta Center
08:44PM 35.6158 -80.6003 216° Southwest 275 316 11,000 -540 Level Atlanta Center
08:46PM 35.5486 -80.6542 213° Southwest 292 336 10,000 -540 Descending Atlanta Center
08:47PM 35.4894 -80.7075 216° Southwest 263 303 10,000  Level Atlanta Center
08:48PM 35.4261 -80.7561 212° Southwest 266 306 10,000  Level Atlanta Center
08:49PM 35.3669 -80.8042 214° Southwest 259 298 10,000 -120 Level Atlanta Center
08:50PM 35.3094 -80.8422 208° Southwest 250 288 9,800 -540 Descending Atlanta Center
08:51PM 35.2406 -80.8372 177° South 250 288 9,000 -720 Descending Atlanta Center
08:52PM 35.1694 -80.8297 175° South 249 287 8,400 -840 Descending Atlanta Center
08:53PM 35.1067 -80.8272 178° South 219 252 7,400 -1,140 Descending Atlanta Center
08:54PM 35.0478 -80.8117 168° South 213 245 6,200 -1,200 Descending Atlanta Center
08:55PM 34.9850 -80.7989 171° South 211 243 5,000 -1,140 Descending Atlanta Center
08:56PM 34.9678 -80.8603 251° West 208 239 4,000 -540 Descending Atlanta Center
08:57PM 34.9919 -80.9103 301° West 197 227 4,000 -120 Level Atlanta Center
08:58PM 35.0403 -80.9236 347° North 175 201 3,800 -600 Descending Atlanta Center
08:59PM 35.0947 -80.9267 357° North 179 206 2,800 -960 Descending Atlanta Center
09:00PM 35.1406 -80.9325 354° North 164 189 1,900 -780 Descending Atlanta Center
09:01PM 35.1761 -80.9361 355° North 129 148 1,300 -600 Descending Atlanta Center
09:03PM 35.2000 -80.9333 North  Level FlightAware Approximate
09:10PM 35.2137 -80.9491 North  Level Estimated